timestamp,wind_dir_avg,wind_spd_max_dir,wind_spd_avg,wind_spd_gust,battery_voltage,lat,long
2018-05-24 00:00:00+00:00,63.0,60.0,9.62,11.15,,47.59359,-54.27349
2018-05-24 00:10:00+00:00,58.0,56.0,11.16,12.15,,47.59359,-54.27349
2018-05-24 00:20:00+00:00,59.0,59.0,11.39,12.41,,47.59359,-54.27349
2018-05-24 00:30:00+00:00,60.0,60.0,9.95,10.79,,47.59359,-54.27349
2018-05-24 00:40:00+00:00,59.0,65.0,10.98,11.95,,47.59359,-54.27349
2018-05-24 00:50:00+00:00,67.0,69.0,11.32,12.72,,47.59359,-54.27349
2018-05-24 01:00:00+00:00,65.0,62.0,10.23,11.4,,47.59359,-54.27349
2018-05-24 01:10:00+00:00,62.0,61.0,11.32,12.72,,47.59359,-54.27349
2018-05-24 01:20:00+00:00,60.0,60.0,10.73,11.96,,47.59359,-54.27349
2018-05-24 01:30:00+00:00,61.0,62.0,10.0,11.12,,47.59359,-54.27349
2018-05-24 01:40:00+00:00,67.0,63.0,11.68,12.79,,47.59359,-54.27349
2018-05-24 01:50:00+00:00,58.0,59.0,12.34,13.58,,47.59359,-54.27349
2018-05-24 02:00:00+00:00,60.0,61.0,13.6,15.47,,47.59359,-54.27349
2018-05-24 02:10:00+00:00,59.0,58.0,13.83,15.34,,47.59359,-54.27349
2018-05-24 02:20:00+00:00,61.0,58.0,14.14,16.0,,47.59359,-54.27349
2018-05-24 02:30:00+00:00,65.0,61.0,14.53,16.72,,47.59359,-54.27349
2018-05-24 02:40:00+00:00,65.0,70.0,13.14,15.51,,47.59359,-54.27349
2018-05-24 02:50:00+00:00,68.0,70.0,14.35,16.24,,47.59359,-54.27349
2018-05-24 03:00:00+00:00,61.0,63.0,13.5,15.71,,47.59359,-54.27349
2018-05-24 03:10:00+00:00,58.0,57.0,14.42,16.13,,47.59359,-54.27349
2018-05-24 03:20:00+00:00,60.0,60.0,14.7,17.01,,47.59359,-54.27349
2018-05-24 03:30:00+00:00,65.0,63.0,13.74,15.71,,47.59359,-54.27349
2018-05-24 03:40:00+00:00,64.0,62.0,14.9,17.16,,47.59359,-54.27349
2018-05-24 03:50:00+00:00,60.0,61.0,16.12,18.13,,47.59359,-54.27349
2018-05-24 04:00:00+00:00,61.0,58.0,16.82,19.69,,47.59359,-54.27349
2018-05-24 04:10:00+00:00,68.0,64.0,16.65,20.08,,47.59359,-54.27349
2018-05-24 04:20:00+00:00,67.0,64.0,16.59,19.1,,47.59359,-54.27349
2018-05-24 04:30:00+00:00,67.0,65.0,17.99,19.67,,47.59359,-54.27349
2018-05-24 04:40:00+00:00,61.0,68.0,17.18,19.52,,47.59359,-54.27349
2018-05-24 04:50:00+00:00,66.0,67.0,16.87,20.23,,47.59359,-54.27349
2018-05-24 05:00:00+00:00,65.0,60.0,18.72,20.43,,47.59359,-54.27349
2018-05-24 05:10:00+00:00,66.0,57.0,16.48,18.81,,47.59359,-54.27349
2018-05-24 05:20:00+00:00,70.0,70.0,18.05,20.88,,47.59359,-54.27349
2018-05-24 05:30:00+00:00,65.0,62.0,17.74,20.42,,47.59359,-54.27349
2018-05-24 05:40:00+00:00,69.0,71.0,18.19,22.4,,47.59359,-54.27349
2018-05-24 05:50:00+00:00,71.0,60.0,15.73,18.45,,47.59359,-54.27349
2018-05-24 06:00:00+00:00,66.0,68.0,18.35,20.45,,47.59359,-54.27349
2018-05-24 06:10:00+00:00,64.0,64.0,18.13,20.56,,47.59359,-54.27349
2018-05-24 06:20:00+00:00,64.0,66.0,15.11,18.38,,47.59359,-54.27349
2018-05-24 06:30:00+00:00,68.0,69.0,15.04,17.59,,47.59359,-54.27349
2018-05-24 06:40:00+00:00,61.0,56.0,17.34,19.58,,47.59359,-54.27349
2018-05-24 06:50:00+00:00,59.0,62.0,16.18,18.22,,47.59359,-54.27349
2018-05-24 07:00:00+00:00,62.0,61.0,15.27,17.59,,47.59359,-54.27349
2018-05-24 07:10:00+00:00,51.0,51.0,15.8,17.45,,47.59359,-54.27349
2018-05-24 07:20:00+00:00,36.0,43.0,12.77,14.43,,47.59359,-54.27349
2018-05-24 07:30:00+00:00,18.0,19.0,12.84,15.25,,47.59359,-54.27349
2018-05-24 07:40:00+00:00,25.0,27.0,11.8,14.46,,47.59359,-54.27349
2018-05-24 07:50:00+00:00,47.0,52.0,14.95,16.9,,47.59359,-54.27349
2018-05-24 08:00:00+00:00,50.0,49.0,16.26,18.43,,47.59359,-54.27349
2018-05-24 08:10:00+00:00,47.0,48.0,16.72,17.8,,47.59359,-54.27349
2018-05-24 08:20:00+00:00,39.0,33.0,17.27,19.29,,47.59359,-54.27349
2018-05-24 08:30:00+00:00,36.0,37.0,15.8,19.03,,47.59359,-54.27349
2018-05-24 08:40:00+00:00,41.0,39.0,17.45,19.9,,47.59359,-54.27349
2018-05-24 08:50:00+00:00,38.0,37.0,16.95,18.7,,47.59359,-54.27349
2018-05-24 09:00:00+00:00,38.0,36.0,15.62,17.89,,47.59359,-54.27349
2018-05-24 09:10:00+00:00,41.0,54.0,14.78,17.82,,47.59359,-54.27349
2018-05-24 09:20:00+00:00,34.0,38.0,13.92,16.08,,47.59359,-54.27349
2018-05-24 09:30:00+00:00,33.0,36.0,16.63,19.16,,47.59359,-54.27349
2018-05-24 09:40:00+00:00,38.0,43.0,14.46,17.19,,47.59359,-54.27349
2018-05-24 09:50:00+00:00,36.0,43.0,13.49,17.29,,47.59359,-54.27349
2018-05-24 10:00:00+00:00,35.0,28.0,14.71,16.04,,47.59359,-54.27349
2018-05-24 10:10:00+00:00,33.0,34.0,12.84,16.17,,47.59359,-54.27349
2018-05-24 10:20:00+00:00,34.0,37.0,14.18,16.13,,47.59359,-54.27349
2018-05-24 10:30:00+00:00,37.0,36.0,16.07,18.71,,47.59359,-54.27349
2018-05-24 10:40:00+00:00,32.0,33.0,14.09,16.99,,47.59359,-54.27349
2018-05-24 10:50:00+00:00,27.0,36.0,13.67,15.18,,47.59359,-54.27349
2018-05-24 11:00:00+00:00,26.0,25.0,13.2,14.81,,47.59359,-54.27349
2018-05-24 11:10:00+00:00,27.0,26.0,12.19,14.37,,47.59359,-54.27349
2018-05-24 11:20:00+00:00,24.0,30.0,13.22,16.04,,47.59359,-54.27349
2018-05-24 11:30:00+00:00,20.0,17.0,11.68,13.49,,47.59359,-54.27349
2018-05-24 11:40:00+00:00,15.0,14.0,13.12,14.74,,47.59359,-54.27349
2018-05-24 11:50:00+00:00,21.0,14.0,12.61,15.11,,47.59359,-54.27349
2018-05-24 12:00:00+00:00,17.0,12.0,12.74,15.65,,47.59359,-54.27349
2018-05-24 12:10:00+00:00,15.0,17.0,14.68,17.29,,47.59359,-54.27349
2018-05-24 12:20:00+00:00,16.0,18.0,15.98,19.19,,47.59359,-54.27349
2018-05-24 12:30:00+00:00,18.0,13.0,13.27,15.62,,47.59359,-54.27349
2018-05-24 12:40:00+00:00,18.0,25.0,12.28,14.93,,47.59359,-54.27349
2018-05-24 12:50:00+00:00,20.0,17.0,13.34,18.0,,47.59359,-54.27349
2018-05-24 13:00:00+00:00,25.0,31.0,13.55,15.58,,47.59359,-54.27349
2018-05-24 13:10:00+00:00,14.0,14.0,14.77,16.73,,47.59359,-54.27349
2018-05-24 13:20:00+00:00,17.0,17.0,12.96,15.54,,47.59359,-54.27349
2018-05-24 13:30:00+00:00,17.0,23.0,11.81,14.32,,47.59359,-54.27349
2018-05-24 13:40:00+00:00,23.0,30.0,12.92,15.48,,47.59359,-54.27349
2018-05-24 13:50:00+00:00,12.0,14.0,15.32,17.58,,47.59359,-54.27349
2018-05-24 14:00:00+00:00,7.0,6.0,16.4,18.93,,47.59359,-54.27349
2018-05-24 14:10:00+00:00,7.0,8.0,14.52,16.64,,47.59359,-54.27349
2018-05-24 14:20:00+00:00,3.0,5.0,14.61,16.71,,47.59359,-54.27349
2018-05-24 14:30:00+00:00,359.0,357.0,14.93,18.31,,47.59359,-54.27349
2018-05-24 14:40:00+00:00,10.0,11.0,12.44,14.68,,47.59359,-54.27349
2018-05-24 14:50:00+00:00,4.0,3.0,13.31,16.16,,47.59359,-54.27349
2018-05-24 15:00:00+00:00,15.0,13.0,15.24,17.46,,47.59359,-54.27349
2018-05-24 15:10:00+00:00,14.0,14.0,14.8,16.7,,47.59359,-54.27349
2018-05-24 15:20:00+00:00,6.0,1.0,14.44,16.46,,47.59359,-54.27349
2018-05-24 15:30:00+00:00,16.0,10.0,13.13,16.85,,47.59359,-54.27349
2018-05-24 15:40:00+00:00,6.0,2.0,16.14,18.29,,47.59359,-54.27349
2018-05-24 15:50:00+00:00,17.0,23.0,14.68,17.53,,47.59359,-54.27349
2018-05-24 16:00:00+00:00,5.0,3.0,15.26,17.81,,47.59359,-54.27349
2018-05-24 16:10:00+00:00,8.0,11.0,14.08,16.61,,47.59359,-54.27349
2018-05-24 16:20:00+00:00,22.0,31.0,12.35,15.15,,47.59359,-54.27349
2018-05-24 16:30:00+00:00,18.0,23.0,13.36,15.44,,47.59359,-54.27349
2018-05-24 16:40:00+00:00,16.0,13.0,12.37,14.18,,47.59359,-54.27349
2018-05-24 16:50:00+00:00,12.0,21.0,10.95,14.03,,47.59359,-54.27349
2018-05-24 17:00:00+00:00,12.0,9.0,12.88,14.17,,47.59359,-54.27349
2018-05-24 17:10:00+00:00,19.0,20.0,11.68,13.63,,47.59359,-54.27349
2018-05-24 17:20:00+00:00,8.0,9.0,12.93,14.29,,47.59359,-54.27349
2018-05-24 17:30:00+00:00,4.0,6.0,11.88,13.14,,47.59359,-54.27349
2018-05-24 17:40:00+00:00,10.0,10.0,11.8,13.71,,47.59359,-54.27349
2018-05-24 17:50:00+00:00,11.0,17.0,13.08,15.04,,47.59359,-54.27349
2018-05-24 18:00:00+00:00,5.0,10.0,12.15,13.68,,47.59359,-54.27349
2018-05-24 18:10:00+00:00,15.0,14.0,13.5,15.47,,47.59359,-54.27349
2018-05-24 18:20:00+00:00,15.0,20.0,11.54,13.92,,47.59359,-54.27349
2018-05-24 18:30:00+00:00,13.0,12.0,10.69,12.1,,47.59359,-54.27349
2018-05-24 18:40:00+00:00,9.0,13.0,13.53,14.94,,47.59359,-54.27349
2018-05-24 18:50:00+00:00,8.0,7.0,11.76,13.83,,47.59359,-54.27349
2018-05-24 19:00:00+00:00,358.0,0.0,12.43,14.42,,47.59359,-54.27349
2018-05-24 19:10:00+00:00,12.0,16.0,11.88,13.34,,47.59359,-54.27349
2018-05-24 19:20:00+00:00,12.0,12.0,11.58,13.18,,47.59359,-54.27349
2018-05-24 19:30:00+00:00,3.0,357.0,12.78,14.25,,47.59359,-54.27349
2018-05-24 19:40:00+00:00,6.0,3.0,12.64,14.49,,47.59359,-54.27349
2018-05-24 19:50:00+00:00,14.0,12.0,11.85,13.4,,47.59359,-54.27349
2018-05-24 20:00:00+00:00,10.0,11.0,13.21,14.72,,47.59359,-54.27349
2018-05-24 20:10:00+00:00,16.0,17.0,13.65,15.52,,47.59359,-54.27349
2018-05-24 20:20:00+00:00,9.0,10.0,11.22,12.92,,47.59359,-54.27349
2018-05-24 20:30:00+00:00,18.0,19.0,13.71,16.95,,47.59359,-54.27349
2018-05-24 20:40:00+00:00,11.0,12.0,11.51,13.26,,47.59359,-54.27349
2018-05-24 20:50:00+00:00,17.0,12.0,11.34,12.97,,47.59359,-54.27349
2018-05-24 21:00:00+00:00,22.0,30.0,11.5,14.15,,47.59359,-54.27349
2018-05-24 21:10:00+00:00,19.0,19.0,12.16,14.36,,47.59359,-54.27349
2018-05-24 21:20:00+00:00,25.0,28.0,11.02,12.92,,47.59359,-54.27349
2018-05-24 21:30:00+00:00,25.0,20.0,8.8,10.5,,47.59359,-54.27349
2018-05-24 21:40:00+00:00,28.0,36.0,9.29,11.3,,47.59359,-54.27349
2018-05-24 21:50:00+00:00,14.0,9.0,10.49,12.58,,47.59359,-54.27349
2018-05-24 22:00:00+00:00,9.0,9.0,9.93,11.08,,47.59359,-54.27349
2018-05-24 22:10:00+00:00,15.0,17.0,9.42,11.53,,47.59359,-54.27349
2018-05-24 22:20:00+00:00,9.0,11.0,11.04,12.11,,47.59359,-54.27349
2018-05-24 22:30:00+00:00,8.0,15.0,10.9,13.65,,47.59359,-54.27349
2018-05-24 22:40:00+00:00,3.0,7.0,10.69,12.17,,47.59359,-54.27349
2018-05-24 22:50:00+00:00,17.0,17.0,11.15,12.36,,47.59359,-54.27349
2018-05-24 23:00:00+00:00,33.0,33.0,10.46,11.48,,47.59359,-54.27349
2018-05-24 23:10:00+00:00,20.0,26.0,8.28,9.3,,47.59359,-54.27349
2018-05-24 23:20:00+00:00,14.0,10.0,9.89,11.29,,47.59359,-54.27349
2018-05-24 23:30:00+00:00,15.0,11.0,10.17,11.23,,47.59359,-54.27349
2018-05-24 23:40:00+00:00,17.0,22.0,9.02,10.13,,47.59359,-54.27349
2018-05-24 23:50:00+00:00,15.0,13.0,7.76,8.69,,47.59359,-54.27349
